Location: 22
(39.7117°N, 89.5929°W)
Time: 08:14:11
(UTC-05:00)

S-56A Canister/Altair - Pass Details

Date: 10 February 2023
Orbit: 638 x 2493 km, 38.9° (Epoch: 25 March)

Event Time Altitude Azimuth Distance (km) Brightness Sun altitude
Rises 13:58:35 0° 277° (W) 3,087 10.9 30.7°
Reaches altitude 10° 14:00:56 10° 266° (W) 2,287 10.5 30.5°
Maximum altitude 14:05:32 31° 205° (SSW) 1,548 12.1 30.0°
Drops below altitude 10° 14:11:41 10° 146° (SE) 3,093 11.0 29.4°
Sets 14:15:25 0° 137° (SE) 4,384 11.6 29.0°
